WetterOnline ( http://www.wetteronline.de )

Wetter aktuell Kempten/Allgäu

Aktuelles Wetter: Kempten (705m)

6-stündlich | Neueste Meldungen
Ortszeit Temperatur Wetter
So, 24.06. 2:00 11.6° C bedeckt
Sa, 23.06. 20:00 16.9° C wolkig
Sa, 23.06. 14:00 16.4° C wolkig
Sa, 23.06. 8:00 10.9° C wolkenlos
Sa, 23.06. 2:00 7.6° C bewölkt
Fr, 22.06. 20:00 13.8° C bewölkt
Fr, 22.06. 14:00 14.6° C bewölkt
Fr, 22.06. 8:00 10.6° C bewölkt
Ortszeit Temperatur Wetter
So, 24.06. 7:00 11.6° C wolkig
So, 24.06. 6:50 11.6° C wolkig
So, 24.06. 6:40 11.5° C wolkig
So, 24.06. 6:30 11.4° C bewölkt
So, 24.06. 6:20 11.4° C bewölkt
So, 24.06. 6:10 11.3° C bedeckt
So, 24.06. 6:00 11.2° C bedeckt
So, 24.06. 5:30 11.1° C bedeckt
So, 24.06. 5:00 11.2° C bedeckt
So, 24.06. 4:30 11.2° C bedeckt
So, 24.06. 4:00 11.7° C bedeckt
Ortszeit Relative Feuchte Sichtweite
So, 24.06. 2:00 79% 25 km
Sa, 23.06. 20:00 43% 27 km
Sa, 23.06. 14:00 46% 27 km
Sa, 23.06. 8:00 66% 14 km
Sa, 23.06. 2:00 85% 24 km
Fr, 22.06. 20:00 47% 40 km
Fr, 22.06. 14:00 47% 28 km
Fr, 22.06. 8:00 61% 19 km
Ortszeit Relative Feuchte Sichtweite
So, 24.06. 7:00 76% 21 km
So, 24.06. 6:50 76% -
So, 24.06. 6:40 74% -
So, 24.06. 6:30 75% 19 km
So, 24.06. 6:20 75% -
So, 24.06. 6:10 76% -
So, 24.06. 6:00 82% 22 km
So, 24.06. 5:30 78% 21 km
So, 24.06. 5:00 76% 21 km
So, 24.06. 4:30 79% 20 km
So, 24.06. 4:00 76% 22 km
Ortszeit Niederschlagsmenge Niederschlagsart
So, 24.06. 2:00 0.0 l/m2 in 6 Std. -
Sa, 23.06. 20:00 0.0 l/m2 in 12 Std. -
Sa, 23.06. 14:00 0.0 l/m2 in 6 Std. -
Sa, 23.06. 8:00 0.0 l/m2 in 12 Std. -
Sa, 23.06. 2:00 0.0 l/m2 in 6 Std. -
Fr, 22.06. 20:00 0.0 l/m2 in 12 Std. -
Fr, 22.06. 14:00 0.0 l/m2 in 6 Std. -
Fr, 22.06. 8:00 0.9 l/m2 in 12 Std. -
Ortszeit Niederschlagsmenge Niederschlagsart
So, 24.06. 7:00 0.0 l/m2 in 1 Std. -
So, 24.06. 6:50 keine Meldung -
So, 24.06. 6:40 keine Meldung -
So, 24.06. 6:30 0.0 l/m2 in 1 Std. -
So, 24.06. 6:20 keine Meldung -
So, 24.06. 6:10 keine Meldung -
So, 24.06. 6:00 0.0 l/m2 in 1 Std. -
So, 24.06. 5:30 0.0 l/m2 in 1 Std. -
So, 24.06. 5:00 0.0 l/m2 in 1 Std. -
So, 24.06. 4:30 0.0 l/m2 in 1 Std. -
So, 24.06. 4:00 0.0 l/m2 in 1 Std. -
Ortszeit Stärke Spitze Richtung
km/h Bft. km/h Grad Sektor
So, 24.06. 2:00 4 1 18 90° O
Sa, 23.06. 20:00 9 2 31 350° N
Sa, 23.06. 14:00 13 3 24 340° N
Sa, 23.06. 8:00 0 0 7 - -
Sa, 23.06. 2:00 6 1 17 100° O
Fr, 22.06. 20:00 7 2 28 320° NW
Fr, 22.06. 14:00 14 3 32 290° W
Fr, 22.06. 8:00 9 2 20 310° NW
Ortszeit Stärke Spitze Richtung
km/h Bft. km/h Grad Sektor
So, 24.06. 7:00 2 1 7 30° NO
So, 24.06. 6:50 2 1 - 30° NO
So, 24.06. 6:40 4 1 - 50° NO
So, 24.06. 6:30 0 0 4 - -
So, 24.06. 6:20 2 1 - 70° O
So, 24.06. 6:10 2 1 - 60° NO
So, 24.06. 6:00 0 0 7 - -
So, 24.06. 5:30 0 0 7 - -
So, 24.06. 5:00 0 0 7 - -
So, 24.06. 4:30 2 1 6 60° NO
So, 24.06. 4:00 4 1 11 340° N
Ortszeit Untergrenze Bedeckung Gattung
total tief tief mittel hoch
So, 24.06. 2:00 1500 m 8/8 8/8 - - -
Sa, 23.06. 20:00 2400 m 7/8 7/8 - - -
Sa, 23.06. 14:00 1440 m 8/8 2/8 - - -
Sa, 23.06. 8:00 - 0/8 0/8 - - -
Sa, 23.06. 2:00 2100 m 7/8 7/8 - - -
Fr, 22.06. 20:00 1800 m 7/8 7/8 - - -
Fr, 22.06. 14:00 1440 m 7/8 7/8 - - -
Fr, 22.06. 8:00 1500 m 7/8 7/8 - - -
Ortszeit Bedeckungsgrad in Achtel und Wolkenuntergrenze
So, 24.06. 7:00 6(1500m)
So, 24.06. 6:50 6(1500m)
So, 24.06. 6:40 5(1500m)
So, 24.06. 6:30 7(1500m) 7(3600m)
So, 24.06. 6:20 7(1500m)
So, 24.06. 6:10 8(1500m)
So, 24.06. 6:00 8(1500m)
So, 24.06. 5:30 8(1500m)
So, 24.06. 5:00 6(1500m) 8(2100m)
So, 24.06. 4:30 3(1800m) 7(2100m) 8(2700m)
So, 24.06. 4:00 8(1500m) 8(2100m) 8(2700m)
Ortszeit Luftdruck NN (hPa) Tendenz (hPa in 3 Std.)
So, 24.06. 2:00 1023 - 0,6
Sa, 23.06. 20:00 1022 0,0
Sa, 23.06. 14:00 1023 - 0,7
Sa, 23.06. 8:00 1026 + 0,1
Sa, 23.06. 2:00 1027 0,0
Fr, 22.06. 20:00 1024 + 0,5
Fr, 22.06. 14:00 1023 + 0,3
Fr, 22.06. 8:00 1024 + 0,2
Ortszeit Luftdruck NN (hPa) Tendenz (hPa in 3 Std.)
So, 24.06. 7:00 1022 - 0,4
So, 24.06. 6:50 1022 keine Meldung
So, 24.06. 6:40 1022 keine Meldung
So, 24.06. 6:30 1022 - 0,6
So, 24.06. 6:20 1022 keine Meldung
So, 24.06. 6:10 1022 keine Meldung
So, 24.06. 6:00 1022 - 0,9
So, 24.06. 5:30 1022 - 1,0
So, 24.06. 5:00 1022 - 1,2
So, 24.06. 4:30 1022 - 1,2
So, 24.06. 4:00 1022 - 1,1
Ortszeit Schneehöhe (cm)
So, 24.06. 2:00 -
Sa, 23.06. 20:00 -
Sa, 23.06. 14:00 -
Sa, 23.06. 8:00 -
Sa, 23.06. 2:00 -
Fr, 22.06. 20:00 -
Fr, 22.06. 14:00 -
Fr, 22.06. 8:00 -
Ortszeit Schneehöhe (cm)
So, 24.06. 7:00 -
So, 24.06. 6:50 -
So, 24.06. 6:40 -
So, 24.06. 6:30 -
So, 24.06. 6:20 -
So, 24.06. 6:10 -
So, 24.06. 6:00 -
So, 24.06. 5:30 -
So, 24.06. 5:00 -
So, 24.06. 4:30 -
So, 24.06. 4:00 -
Link zu dieser Seite / Seite empfehlen

Das Wetter in ...